FENGYUN 1C DEB

Satellite information

Favourite Embed

Satellite Type and Status

DEBRISIN ORBIT

Key statistics

Satellite FENGYUN 1C DEB at a glance.

Uptime

9715

Days in orbit

Revolutions

≈ 14.6

Per day

Orbit

SSO

Sun Synchronous Orbit

Inclination

98.6

Latest

Satellite identification and parameters

Extended collection of information and parameters for FENGYUN 1C DEB.

Object identification

Identified? True

Debris? True

Object name: FENGYUN 1C DEB

International designator: 1999-025DJT

Object number (NORAD): 35091

Object ID (CCSDS): 35091

Country: PEOPLES REPUBLIC OF CHINA (PRC)

Current information (Y/N): Y

RCS size: SMALL

Orbital parameters

Period: 98.523 minutes

Inclination: 98.5966 deg

SMA: 7066.177 km

Apoapsis: 722.596 km

Periapsis: 653.489 km

RAAN: 91.8812 deg

Eccentricy: 0.00488998

Argument of periapsis: 289.2957 deg

Mean anomaly: 70.2958 deg

Mean motion: 14.61591412 rev/day

Mean motion (dot): 0.00014633 rev/day2

B* drag term: 0.0029003811 1/REarth

Two-line elements (TLE)

Creation date: Dec. 14, 2025, 3:07 a.m.

Reference frame: TEME

Reference center: EARTH

Epoch: Dec. 13, 2025, 1:18 p.m. UTC

TLE line 0: 0 FENGYUN 1C DEB

TLE line 1: 1 35091U 99025DJT 25347.55429477 .00014633 00000-0 29004-2 0 9991

TLE line 2: 2 35091 98.5966 91.8812 0048900 289.2957 70.2958 14.61591412899398

Live tracking on map

Real-time ground track for satellite FENGYUN 1C DEB.

In-orbit conjunctions

A list of the most updated potential collisions computed for object FENGYUN 1C DEB.

Target Orbit TCA Probability of collision Miss distance Type
CHUANG XIN 1 (CZ-1) SSO 2025-06-29 20:37:37 0.0001073317 824.0 (m) PAYLOAD
CZ-6A DEB LEO 2025-02-20 02:26:00 0.0001140587 254.0 (m) DEBRIS
CZ-6A DEB LEO 2024-11-11 04:10:49 0.0003629792 141.0 (m) DEBRIS

Associated space launch

Chinese polar orbiting meteorological satellite

FENGYUN 1C DEB was lifted into orbit during the mission ‘Long March 4B | Feng Yun 1C’, on board a Long March 4B space rocket.

The launch took place on May 10, 1999, 1:33 a.m. from Launch Complex 7.

For more information about the launch, click the button.

Launch to space Long March 4B | Feng Yun 1C
Long March 4B | Feng Yun 1C

Agency: N/A

Status: Launch Successful

Launch date: May 10, 1999, 1:33 a.m. UTC

Rocket: Long March 4B

Launch pad: Launch Complex 7

Location: Taiyuan Satellite Launch Center, People's Republic of China

...

Latest news about this satellite

There are no fresh news available about this satellite. Check back as we update our databases every day.


Newsletter sign-up

Weekly statistics, charts and insights to help you stay on top of the space industry.